Showing default

SPACEWAY 3, 32018

Orbit data source: Space-Track

SPACEWAY 3, 32018 is a payload satellite owned by Hughes NS (US) in GEO that was launched on Tue, 14 Aug 2007 UTC via an ARIANE 5ECA launch vehicle from the French Guiana (FRGUI). Payload-class satellites include a variety of spacecraft equipped with specific instruments for various scientific and technological missions. These include communications satellites like Starlink; space stations such as the ISS; scientific satellites like the Hubble; Earth observation satellites from companies like Planet Labs, Umbra, and HawkEye 360; GPS; miniature CubeSats for education and research; and military/defense satellites.

Not visible in the next 10 days
Identifier
32018, 2007-036A
Orbit
GEO
Country
Flag of USUS
Related business
Manufacturer
Boeing/ES
Mission
Non-operational Commercial Communications
Bus & Motor
BSS-702HP, R-4D-15-375
Mass
6,075 kg wet, 3,655 kg dry
Launch date (UTC)
2007-08-14 (18 years ago)
Launch vehicle
ARIANE 5ECA
Launch site
French Guiana (FRGUI)
Object type
Payload
Rocket body
Debris
Shape & HBR
Box + 2 Pan, 20.4 m
Radar Cross Section
53.753 m², Large (>1 m²)

Expand to show TLE details & history
Last TLE update: 12 hours ago

TLE from 12 hours ago
0 SPACEWAY 3
1 32018U 07036A   25259.58338535 -.00000189  00000-0  00000-0 0  9992
2 32018   3.2885  80.4013 0003494 131.8100 352.1510  0.99142739 43741
Epoch: 2025-09-16T14:00Z
TLE epoch observation values (Epoch: 2025-09-16T14:00:04.494Z)
Latitude
2.74393°
Longitude
-1.3927°
Altitude
36,090.579 km
Speed
3.064 km/s
True Right ascension
13h 37m 35s
True Declination
2° 44' 28"
Sunlit
Object was in daylight at epoch
Visualization orbit readout
Latitude
Unknown
Longitude
Unknown
Altitude
Unknown
Speed
Unknown
Apparent Right ascension
Unknown
Apparent Declination
Unknown
Sunlit
N/A
Visualization observer readout
Local Sidereal Time
18:26:36
Azimuth
Unknown
Elevation
Unknown
Doppler factor
Unknown
Orbital elements
Apogee altitude
36,122.009 km
Perigee altitude
36,092.321 km
Semi-major axis
42,485.302 km
Eccentricity
0.00035
Inclination
3.2885°
RAAN
80.4013°
Arg. of periapsis
131.81°
True anomaly
352.14553°
Mean anomaly
352.151°
Eccentric anomaly
352.14827°
Mean motion
0.24785 °/min
Orbital period
1,452.5 mins
BSTAR
0
Loading maneuver chart data...
Computing Atmospheric mass density...
Loading historical data...
Loading historical data...
Loading historical data...
Loading historical data...
Loading historical data...
Loading historical data...
Loading historical data...
Other satellites on launch #36 in the year 2007 (2007-08-14 UTC)

Documentation

Showing up to 5 results
|